CZ-6A DEB, 55212

Orbit data source: Space-Track

CZ-6A DEB, 55212 is space debris in SSO originally from a launch on Fri, 11 Nov 2022 UTC launched from the Taiyaun Space Center, China (TSC). Debris objects in space refer to the collection of defunct objects orbiting the Earth. Examples of debris include non-operational satellites, rocket bodies, and fragments generated from explosions, collisions, or faulty payload assembly.

Loading next visibility...
Identifier
55212, 2022-151WD
Orbit
SSO
Country
Flag of CNCN / PRC
Related business
Manufacturer
SAST
Mission
Spacecraft
Bus & Motor
Unknown
Mass
Unknown
Launch date (UTC)
2022-11-11 (3 years ago)
Launch vehicle
Unknown
Launch site
Taiyaun Space Center, China (TSC)
Object type
Payload
Rocket body
Debris
Shape & HBR
Unknown shape, 0.1 m
Radar Cross Section
Small (<0.1 m²)

Expand to show TLE details & history
Last TLE update: 7 hours ago

TLE from 7 hours ago
0 CZ-6A DEB
1 55212U 22151WD  26130.21070958  .00032991  00000-0  24016-2 0  9999
2 55212  98.6457 211.9736 0029216 351.6216   8.4515 15.03364411180289
Epoch: 2026-05-10T05:03Z
TLE epoch observation values (Epoch: 2026-05-10T05:03:25.307Z)
Latitude
Longitude
-91.8989°
Altitude
539.517 km
Speed
7.604 km/s
True Right ascension
14h 07m 53s
True Declination
0° 00' 00"
Sunlit
Object was in full shadow at epoch
Visualization orbit readout
Latitude
Unknown
Longitude
Unknown
Altitude
Unknown
Speed
Unknown
Apparent Right ascension
Unknown
Apparent Declination
Unknown
Sunlit
N/A
Visualization observer readout
Local Sidereal Time
20:41:38
Azimuth
Unknown
Elevation
Unknown
Doppler factor
Unknown
Orbital elements
Apogee altitude
573.828 km
Perigee altitude
533.324 km
Semi-major axis
6,931.713 km
Eccentricity
0.00292
Inclination
98.6457°
RAAN
211.9736°
Arg. of periapsis
351.6216°
True anomaly
8.50088°
Mean anomaly
8.4515°
Eccentric anomaly
8.47617°
Mean motion
3.76082 °/min
Orbital period
95.72 mins
BSTAR
0.0024016
Loading maneuver chart data...
Computing Atmospheric mass density...
Loading historical data...
Loading historical data...
Loading historical data...
Loading historical data...
Loading historical data...
Loading historical data...
Loading historical data...

Documentation

Showing up to 5 results
|